FENGYUN 1C DEB, 31286

Orbit data source: Space-Track

FENGYUN 1C DEB, 31286 is space debris in SSO originally from a launch on Mon, 10 May 1999 UTC launched from the Taiyaun Space Center, China (TSC). Fengyun 1C debris stems from the Chinese weather satellite Fengyun-1C, which was intentionally destroyed by a Chinese anti-satellite missile in 2007. This event dramatically increased the amount of space debris, with thousands of trackable fragments posing hazards to satellites and human spaceflight. The Fengyun 1C debris cloud has become a focal point in discussions about space sustainability and the need for international regulations to prevent the creation of new debris.

Loading next visibility...
Identifier
31286, 1999-025BNU
Orbit
SSO
Country
Flag of CNCN / PRC
Related business
Manufacturer
Unknown
Mission
Spacecraft
Bus & Motor
Unknown
Mass
Unknown
Launch date (UTC)
1999-05-10 (27 years ago)
Launch vehicle
Unknown
Launch site
Taiyaun Space Center, China (TSC)
Object type
Payload
Rocket body
Debris
Shape & HBR
Unknown shape, 0.1 m
Radar Cross Section
Small (<0.1 m²)

Expand to show TLE details & history
Last TLE update: 1 day ago

TLE from 1 day ago
0 FENGYUN 1C DEB
1 31286U 99025BNU 26122.74259220  .00005087  00000-0  21487-2 0  9993
2 31286 100.8598  51.1202 0075611 260.0001  99.2631 14.24646033660266
Epoch: 2026-05-02T17:49Z
TLE epoch observation values (Epoch: 2026-05-02T17:49:19.966Z)
Latitude
-0.00005°
Longitude
-76.86911°
Altitude
821.676 km
Speed
7.438 km/s
True Right ascension
03h 24m 28s
True Declination
0° 00' 00"
Sunlit
Object was in daylight at epoch
Visualization orbit readout
Latitude
Unknown
Longitude
Unknown
Altitude
Unknown
Speed
Unknown
Apparent Right ascension
Unknown
Apparent Declination
Unknown
Sunlit
N/A
Visualization observer readout
Local Sidereal Time
08:33:42
Azimuth
Unknown
Elevation
Unknown
Doppler factor
Unknown
Orbital elements
Apogee altitude
861.278 km
Perigee altitude
752.623 km
Semi-major axis
7,185.088 km
Eccentricity
0.00756
Inclination
100.8598°
RAAN
51.1202°
Arg. of periapsis
260.0001°
True anomaly
100.11691°
Mean anomaly
99.2631°
Eccentric anomaly
99.69014°
Mean motion
3.56365 °/min
Orbital period
101.02 mins
BSTAR
0.0021487
Loading maneuver chart data...
Computing Atmospheric mass density...

Documentation

Showing up to 5 results
|